TimeEDT,TemperatureF,Dew PointF,Humidity,Sea Level PressureIn,VisibilityMPH,Wind Direction,Wind SpeedMPH,Gust SpeedMPH,PrecipitationIn,Events,Conditions,WindDirDegrees,DateUTC
12:53 AM,95.0,75.0,52,30.07,10.0,Calm,Calm,-,N/A,,Clear,0,2013-06-16 04:53:00
1:53 AM,93.0,75.9,57,30.06,10.0,SE,3.5,-,N/A,,Clear,130,2013-06-16 05:53:00
2:53 AM,91.9,75.0,58,30.05,10.0,Calm,Calm,-,N/A,,Clear,0,2013-06-16 06:53:00
3:53 AM,82.0,75.0,79,30.04,10.0,Calm,Calm,-,N/A,,Clear,0,2013-06-16 07:53:00
4:53 AM,84.0,75.0,74,30.04,10.0,Calm,Calm,-,N/A,,Clear,0,2013-06-16 08:53:00
5:53 AM,80.1,75.0,85,30.05,10.0,Calm,Calm,-,N/A,,Clear,0,2013-06-16 09:53:00
6:53 AM,81.0,75.0,82,30.06,10.0,Calm,Calm,-,N/A,,Clear,0,2013-06-16 10:53:00
7:53 AM,86.0,77.0,74,30.07,10.0,Calm,Calm,-,N/A,,Partly Cloudy,0,2013-06-16 11:53:00
8:53 AM,-9999,-9999,N/A,30.08,10.0,East,4.6,-,N/A,,Scattered Clouds,90,2013-06-16 12:53:00
9:53 AM,100.0,77.0,48,30.09,10.0,ESE,8.1,-,N/A,,Scattered Clouds,120,2013-06-16 13:53:00
10:53 AM,100.0,78.1,50,30.09,10.0,East,11.5,-,N/A,,Scattered Clouds,100,2013-06-16 14:53:00
11:53 AM,100.0,77.0,48,30.09,10.0,East,10.4,-,N/A,,Partly Cloudy,90,2013-06-16 15:53:00
12:53 PM,-9999,-9999,N/A,30.09,10.0,ESE,11.5,-,N/A,,Scattered Clouds,110,2013-06-16 16:53:00
1:53 PM,-9999,-9999,N/A,30.09,10.0,ESE,13.8,-,N/A,,Scattered Clouds,110,2013-06-16 17:53:00
2:53 PM,-9999,-9999,N/A,30.07,-9999.0,North,-9999.0,-,N/A,,Unknown,0,2013-06-16 18:53:00
3:53 PM,-9999,-9999,N/A,30.07,-9999.0,North,-9999.0,-,N/A,,Unknown,0,2013-06-16 19:53:00
4:53 PM,-9999,-9999,N/A,30.05,-9999.0,North,-9999.0,-,N/A,,Unknown,0,2013-06-16 20:53:00
5:53 PM,-9999,-9999,N/A,30.04,-9999.0,North,-9999.0,-,N/A,,Unknown,0,2013-06-16 21:53:00
6:53 PM,-9999,-9999,N/A,30.05,-9999.0,North,-9999.0,-,N/A,,Unknown,0,2013-06-16 22:53:00
7:53 PM,-9999,-9999,N/A,30.06,-9999.0,North,-9999.0,-,N/A,,Unknown,0,2013-06-16 23:53:00
8:53 PM,-9999,-9999,N/A,30.08,-9999.0,North,-9999.0,-,N/A,,Unknown,0,2013-06-17 00:53:00
9:53 PM,-9999,-9999,N/A,30.09,-9999.0,North,-9999.0,-,N/A,,Unknown,0,2013-06-17 01:53:00
10:53 PM,-9999,-9999,N/A,30.10,-9999.0,North,-9999.0,-,N/A,,Unknown,0,2013-06-17 02:53:00
11:53 PM,-9999,-9999,N/A,30.10,-9999.0,North,-9999.0,-,N/A,,Unknown,0,2013-06-17 03:53:00